Date,TemperatureHighF,TemperatureAvgF,TemperatureLowF,DewpointHighF,DewpointAvgF,DewpointLowF,HumidityHigh,HumidityAvg,HumidityLow,PressureMaxIn,PressureMinIn,WindSpeedMaxMPH,WindSpeedAvgMPH,GustSpeedMaxMPH,PrecipitationSumIn
2013-1-1,41.0,27.4,17.0,15.0,9.2,5.0,84,49,24,0.00,40.00,4,2,12,0.01
2013-1-2,45.0,32.1,15.0,23.0,1.1,-99.9,90,47,29,0.00,40.00,2,-138,7,0.02
2013-1-3,47.0,33.0,15.0,26.0,20.4,12.0,92,65,31,0.00,40.00,2,1,5,0.16
2013-1-4,52.0,33.0,9.0,31.0,19.1,-99.9,96,70,33,0.00,40.00,2,-46,7,0.32
2013-1-5,50.0,37.1,17.0,30.0,19.0,-99.9,90,57,40,0.00,40.00,3,-42,16,0.31
2013-1-6,35.0,30.2,26.0,25.0,21.0,17.0,83,69,59,0.00,40.00,4,2,10,0.01
2013-1-7,45.0,34.3,24.0,31.0,24.3,-99.9,98,74,47,0.00,40.00,4,-16,10,0.11
2013-1-8,52.0,36.8,22.0,34.0,28.3,20.0,97,75,43,0.00,40.00,2,1,7,0.25
2013-1-9,52.0,40.8,23.0,30.0,24.7,19.0,94,57,33,0.00,40.00,7,4,26,0.05
2013-1-10,28.0,23.2,20.0,20.0,-2.6,-99.9,90,57,40,0.00,40.00,5,-135,16,0.00
2013-1-11,27.0,25.1,24.0,5.0,4.6,3.0,43,41,38,0.00,40.00,4,3,12,0.00
2013-1-12,33.0,25.4,17.0,6.0,1.3,-8.0,52,36,21,0.00,40.00,3,2,9,0.00
2013-1-13,32.0,17.2,-10.0,7.0,-5.8,-99.9,78,41,20,0.00,40.00,6,-18,17,0.00
2013-1-14,38.0,27.1,-5.0,7.0,5.1,-12.0,78,42,22,0.00,40.00,5,3,17,0.00
2013-1-15,54.0,34.2,13.0,26.0,13.6,-99.9,84,53,26,0.00,40.00,4,-39,13,0.15
2013-1-16,51.0,40.5,20.0,19.0,12.3,7.0,84,36,18,0.00,40.00,3,2,8,0.09
2013-1-17,50.0,39.1,4.0,16.0,10.2,-2.0,82,36,19,0.00,40.00,3,2,7,0.01
2013-1-18,50.0,40.8,3.0,17.0,6.8,-99.9,81,30,17,0.00,40.00,3,-30,7,0.01
2013-1-19,49.0,40.6,18.0,16.0,-3.5,-99.9,65,24,16,0.00,40.00,2,-114,6,0.00
2013-1-20,49.0,39.6,17.0,16.0,-0.9,-99.9,58,25,19,0.00,40.00,3,-95,8,0.00
2013-1-21,55.0,38.5,9.0,22.0,2.1,-99.9,77,34,14,0.00,40.00,3,-104,7,0.00
2013-1-22,52.0,39.4,12.0,25.0,21.3,8.0,85,52,29,0.00,40.00,3,1,8,0.00
2013-1-23,54.0,42.7,29.0,26.0,10.4,-99.9,70,35,17,0.00,40.00,6,-49,24,0.00
2013-1-24,42.0,36.2,32.0,39.0,25.3,-99.9,99,85,80,0.00,40.00,1,-64,4,0.14
2013-1-25,46.0,40.5,35.0,40.0,37.1,35.0,100,88,76,0.00,40.00,4,2,14,0.06
2013-1-26,47.0,39.4,33.0,33.0,19.8,-99.9,83,61,54,0.00,40.00,6,-64,23,0.01
2013-1-27,35.0,26.6,19.0,20.0,3.9,-99.9,88,63,48,0.00,40.00,4,-117,19,0.00
2013-1-28,33.0,28.7,13.0,24.0,9.6,-99.9,87,56,45,0.00,40.00,4,-61,14,0.00
2013-1-29,47.0,36.8,28.0,28.0,24.2,20.0,87,61,46,0.00,40.00,6,3,25,0.09
2013-1-30,54.0,37.8,21.0,29.0,14.4,-99.9,93,54,26,0.00,40.00,3,-65,8,0.08
2013-1-31,56.0,47.9,29.0,23.0,20.5,16.0,78,35,24,0.00,40.00,4,3,12,0.00
2013-2-1,55.0,38.1,16.0,22.0,12.9,-99.9,83,47,18,0.00,40.00,2,-41,9,0.00
2013-2-2,47.0,32.1,19.0,27.0,21.0,14.0,91,68,32,0.00,40.00,2,1,7,0.00
2013-2-3,51.0,31.2,19.0,27.0,19.1,15.0,90,67,27,0.00,40.00,4,2,12,0.00
2013-2-4,58.0,35.2,17.0,29.0,13.4,-99.9,89,58,22,0.00,40.00,4,-59,11,0.00
2013-2-5,52.0,37.1,26.0,24.0,19.0,13.0,72,50,24,0.00,40.00,6,4,24,0.00
2013-2-6,51.0,30.3,14.0,20.0,9.3,-8.0,75,46,9,0.00,40.00,3,2,12,0.00
2013-2-7,35.0,32.2,30.0,25.0,2.2,-99.9,78,45,37,0.00,40.00,5,-114,18,0.00
2013-2-8,34.0,25.4,12.0,19.0,12.9,7.0,80,60,43,0.00,40.00,2,2,14,0.00
2013-2-9,40.0,21.3,6.0,16.0,7.7,1.0,83,60,29,0.00,40.00,4,2,12,0.00
2013-2-10,37.0,28.9,12.0,17.0,-3.7,-99.9,81,40,35,0.00,40.00,7,-128,20,0.00
2013-2-11,41.0,33.2,17.0,13.0,-0.2,-99.9,64,33,25,0.00,40.00,4,-82,14,0.03
2013-2-12,49.0,35.4,20.0,18.0,-0.9,-99.9,72,38,23,0.00,40.00,3,-146,10,0.01
2013-2-13,50.0,39.9,24.0,23.0,20.8,20.0,85,49,30,0.00,40.00,6,3,17,0.00
2013-2-14,50.0,38.7,25.0,25.0,15.8,-99.9,86,51,33,0.00,40.00,5,-53,13,0.00
2013-2-15,55.0,32.9,17.0,25.0,20.2,14.0,90,67,24,0.00,40.00,3,1,8,0.00
2013-2-16,55.0,37.7,21.0,23.0,18.0,13.0,91,51,20,0.00,40.00,4,2,11,0.00
2013-2-17,54.0,38.1,23.0,21.0,11.2,-99.9,81,44,19,0.00,40.00,4,-50,12,0.00
2013-2-18,51.0,39.2,26.0,21.0,15.9,10.0,66,41,19,0.00,40.00,5,4,23,0.00
2013-2-19,34.0,28.4,22.0,26.0,13.0,-99.9,83,64,42,0.00,40.00,7,-46,26,0.00
2013-2-20,40.0,31.2,23.0,19.0,1.5,-99.9,76,40,24,0.00,40.00,5,-81,13,0.00
2013-2-21,38.0,29.6,17.0,17.0,9.2,3.0,70,44,24,0.00,40.00,4,2,15,0.01
2013-2-22,49.0,33.2,12.0,26.0,13.1,3.0,84,51,16,0.00,40.00,5,2,17,0.17
2013-2-23,39.0,32.1,25.0,19.0,10.9,2.0,58,41,23,0.00,40.00,6,4,18,0.01
2013-2-24,44.0,34.5,22.0,12.0,-3.3,-99.9,55,28,16,0.00,40.00,5,-81,12,0.01
2013-2-25,49.0,40.8,28.0,23.0,15.5,7.0,73,39,18,0.00,40.00,7,4,27,0.00
2013-2-26,44.0,36.0,15.0,14.0,-5.9,-99.9,44,22,15,0.00,40.00,6,-82,14,0.00
2013-2-27,51.0,41.8,31.0,18.0,11.4,2.0,53,32,13,0.00,40.00,5,3,14,0.00
2013-2-28,56.0,38.4,27.0,28.0,15.5,-99.9,86,49,33,0.00,40.00,4,-52,11,0.00
2013-3-1,59.0,46.2,29.0,30.0,27.6,25.0,90,52,32,0.00,40.00,4,2,11,0.00
2013-3-2,60.0,50.7,31.0,28.0,22.5,20.0,87,35,22,0.00,40.00,6,3,24,0.00
2013-3-3,41.0,37.3,31.0,35.0,32.3,30.0,96,83,77,0.00,40.00,3,2,12,0.22
2013-3-4,53.0,45.4,25.0,35.0,18.8,-99.9,83,49,35,0.00,40.00,4,-82,15,0.01
2013-3-5,49.0,42.8,35.0,27.0,23.5,15.0,69,47,37,0.00,40.00,8,6,34,0.00
2013-3-6,35.0,30.3,27.0,28.0,10.0,-99.9,92,75,69,0.00,40.00,6,-128,23,0.00
2013-3-7,38.0,31.8,27.0,27.0,25.3,20.0,94,78,48,0.00,40.00,2,2,8,0.00
2013-3-8,44.0,34.5,30.0,28.0,24.7,21.0,91,68,46,0.00,40.00,4,2,10,0.01
2013-3-9,46.0,36.7,21.0,22.0,1.8,-99.9,75,34,19,0.00,40.00,7,-83,18,0.07
2013-3-10,56.0,45.6,17.0,21.0,2.5,-99.9,69,24,15,0.00,40.00,4,-84,11,0.28
2013-3-11,61.0,51.3,25.0,25.0,18.9,13.0,78,31,17,0.00,40.00,4,2,11,0.02
2013-3-12,65.0,52.9,28.0,29.0,22.6,16.0,86,36,15,0.00,40.00,3,2,10,0.00
2013-3-13,70.0,52.9,32.0,34.0,27.9,16.0,91,43,13,0.00,40.00,4,3,18,0.00
2013-3-14,68.0,58.1,47.0,36.0,26.2,17.0,64,32,20,0.00,40.00,5,3,20,0.00
2013-3-15,63.0,52.1,32.0,32.0,26.0,13.0,79,40,14,0.00,40.00,4,2,15,0.00
2013-3-16,58.0,48.7,32.0,27.0,11.5,-99.9,65,32,18,0.00,40.00,4,-78,18,0.00
2013-3-17,124.0,46.9,40.0,61.0,3.2,-99.9,47,23,13,0.00,40.00,5,-27,17,0.00
2013-3-18,56.0,50.0,33.0,29.0,18.6,11.0,57,31,18,0.00,40.00,5,3,20,0.00
2013-3-19,54.0,49.1,38.0,34.0,18.3,-99.9,64,42,38,0.00,40.00,5,-86,17,0.00
2013-3-20,42.0,37.9,35.0,36.0,17.9,-99.9,91,76,78,0.00,40.00,6,-121,23,0.26
2013-3-21,53.0,47.8,34.0,29.0,22.7,13.0,55,38,22,0.00,40.00,4,3,13,0.02
2013-3-22,50.0,43.6,26.0,20.0,3.0,-10.0,77,24,9,0.00,40.00,5,3,12,0.00
2013-3-23,55.0,47.4,28.0,15.0,10.9,0.0,57,25,11,0.00,40.00,4,3,14,0.00
2013-3-24,59.0,53.5,33.0,28.0,23.6,21.0,68,33,23,0.00,40.00,3,2,13,0.00
2013-3-25,61.0,50.0,29.0,23.0,-3.4,-99.9,59,24,13,0.00,40.00,4,-164,14,0.00
2013-3-26,52.0,46.1,42.0,34.0,29.0,18.0,68,52,37,0.00,40.00,6,4,19,0.00
2013-3-27,56.0,49.9,41.0,33.0,30.1,28.0,62,47,38,0.00,40.00,4,4,15,0.00
2013-3-28,53.0,51.0,47.0,35.0,32.6,31.0,64,50,44,0.00,40.00,5,4,16,0.00
2013-3-29,56.0,47.4,32.0,38.0,34.0,31.0,100,63,42,0.00,40.00,3,2,10,0.00
2013-3-30,59.0,54.1,38.0,36.0,33.8,30.0,91,49,35,0.00,40.00,5,3,16,0.00
2013-3-31,46.0,42.6,38.0,36.0,18.0,-99.9,80,60,53,0.00,40.00,6,-108,18,0.02
2013-4-1,49.0,43.2,38.0,33.0,31.4,30.0,74,63,54,0.00,40.00,4,3,15,0.17
2013-4-2,56.0,50.1,33.0,34.0,31.5,29.0,94,50,38,0.00,40.00,4,3,13,0.02
2013-4-3,65.0,55.1,32.0,41.0,34.7,31.0,97,50,31,0.00,40.00,4,2,13,0.00
2013-4-4,51.0,45.9,41.0,39.0,21.6,-99.9,84,62,54,0.00,40.00,6,-108,27,0.12
2013-4-5,55.0,49.0,42.0,33.0,29.9,27.0,60,48,41,0.00,40.00,5,4,19,0.00
2013-4-6,54.0,48.4,39.0,33.0,30.3,24.0,56,50,43,0.00,40.00,5,4,19,0.00
2013-4-7,53.0,47.9,41.0,33.0,30.5,29.0,66,51,43,0.00,40.00,8,6,27,0.00
2013-4-8,38.0,35.5,32.0,23.0,18.9,16.0,57,51,41,0.00,40.00,7,5,24,0.00
2013-4-9,48.0,41.5,32.0,16.0,12.6,10.0,50,32,22,0.00,40.00,10,8,30,0.18
2013-4-10,64.0,57.7,41.0,35.0,29.5,25.0,55,35,29,0.00,40.00,5,3,16,0.01
2013-4-11,58.0,54.7,47.0,37.0,34.1,15.0,69,47,19,0.00,40.00,5,4,13,0.00
2013-4-12,66.0,57.3,40.0,39.0,31.6,27.0,66,39,25,0.00,40.00,4,3,19,0.00
2013-4-13,62.0,57.1,52.0,37.0,32.5,26.0,50,40,34,0.00,40.00,7,6,25,0.00
2013-4-14,57.0,51.7,44.0,33.0,25.5,23.0,57,37,28,0.00,40.00,8,5,27,0.00
2013-4-15,46.0,41.4,34.0,24.0,5.0,-99.9,50,36,34,0.00,40.00,5,-121,26,0.00
2013-4-16,37.0,32.2,28.0,21.0,17.2,14.0,74,54,38,0.00,40.00,5,4,26,0.00
2013-4-17,43.0,37.9,31.0,15.0,-0.6,-99.9,51,30,26,0.00,40.00,8,-99,19,0.00
2013-4-18,54.0,48.1,33.0,17.0,14.0,9.0,47,26,22,0.00,40.00,4,3,15,0.17
2013-4-19,62.0,55.8,39.0,29.0,26.5,24.0,57,33,25,0.00,40.00,4,3,19,0.02
2013-4-20,66.0,58.0,40.0,31.0,11.3,-99.9,66,28,12,0.00,40.00,4,-106,14,0.00
2013-4-21,69.0,62.6,44.0,32.0,15.0,-99.9,54,26,20,0.00,40.00,4,-97,14,0.00
2013-4-22,67.0,61.6,47.0,36.0,29.2,21.0,63,32,19,0.00,40.00,4,3,16,0.00
2013-4-23,64.0,56.5,41.0,25.0,18.8,10.0,38,23,19,0.00,40.00,5,3,15,0.00
2013-4-24,61.0,57.6,45.0,20.0,10.2,7.0,37,15,14,0.00,40.00,4,4,21,0.00
2013-4-25,66.0,59.9,43.0,25.0,23.1,20.0,45,25,20,0.00,40.00,5,3,16,0.00
2013-4-26,71.0,63.7,46.0,31.0,12.7,-99.9,56,23,14,0.00,40.00,5,-97,17,0.00
2013-4-27,73.0,67.4,51.0,38.0,33.3,30.0,61,30,21,0.00,40.00,5,4,15,0.00
2013-4-28,75.0,66.9,47.0,34.0,11.8,-99.9,46,21,16,0.00,40.00,3,-123,14,0.00
2013-4-29,76.0,67.2,52.0,40.0,35.4,32.0,61,32,23,0.00,40.00,5,3,15,0.00
2013-4-30,65.0,60.5,51.0,41.0,34.8,28.0,65,39,30,0.00,40.00,5,4,18,0.00
2013-5-1,62.0,57.7,46.0,11.0,5.2,-1.0,18,12,9,0.00,40.00,5,4,15,0.00
2013-5-2,70.0,63.3,46.0,22.0,6.0,-99.9,33,16,14,0.00,40.00,4,-102,13,0.00
2013-5-3,72.0,66.5,51.0,37.0,17.2,-99.9,52,24,17,0.00,40.00,5,-88,19,0.00
2013-5-4,65.0,57.2,49.0,30.0,14.8,-99.9,45,27,22,0.00,40.00,5,-82,21,0.00
2013-5-5,59.0,55.6,48.0,37.0,34.2,31.0,66,45,38,0.00,40.00,4,3,16,0.00
2013-5-6,43.0,40.6,37.0,39.0,20.5,-99.9,95,77,83,0.00,40.00,3,-123,8,0.22
2013-5-7,45.0,43.4,41.0,40.0,23.3,-99.9,89,73,77,0.00,40.00,4,-109,9,0.11
2013-5-8,57.0,51.8,42.0,43.0,27.1,-99.9,94,59,49,0.00,40.00,4,-88,13,0.01
2013-5-9,66.0,59.7,45.0,44.0,40.2,35.0,82,50,37,0.00,40.00,4,3,13,0.00
2013-5-10,73.0,65.4,51.0,42.0,34.4,-99.9,69,36,26,0.00,40.00,4,3,14,0.00
2013-5-11,77.0,69.2,55.0,43.0,38.6,33.0,65,35,21,0.00,40.00,4,3,13,0.00
2013-5-12,78.0,70.9,57.0,41.0,36.7,33.0,50,30,22,0.00,40.00,5,3,15,0.00
2013-5-13,78.0,73.6,65.0,35.0,33.5,30.0,33,23,21,0.00,40.00,5,4,24,0.00
2013-5-14,70.0,64.2,58.0,41.0,24.5,-99.9,53,33,29,0.00,40.00,7,-88,18,0.00
2013-5-15,70.0,66.1,61.0,33.0,23.3,18.0,35,20,15,0.00,40.00,7,5,27,0.00
2013-5-16,47.0,40.0,42.0,41.0,10.7,-99.9,88,82,77,0.00,40.00,5,4,19,0.32
2013-5-17,59.0,53.9,46.0,38.0,19.4,-99.9,64,43,39,0.00,40.00,6,-88,20,0.06
2013-5-18,64.0,57.0,46.0,34.0,27.9,18.0,49,34,19,0.00,40.00,5,3,16,0.00
2013-5-19,65.0,58.3,47.0,33.0,16.3,-99.9,58,29,15,0.00,40.00,5,-85,16,0.00
2013-5-20,69.0,63.5,51.0,34.0,29.9,25.0,44,28,24,0.00,40.00,4,3,14,0.00
2013-5-21,63.0,62.4,61.0,22.0,21.0,20.0,22,20,19,0.00,40.00,6,5,30,0.00